Regional Weather Roundup
Issued by NWS

Home | Current Version | Previous Version | Text Only | Print | Product List | Glossary On
Versions: 1 2 3 4 5 6 7 8 9 10 11 12 13 14 15 16 17 18 19 20 21 22 23 24 25 26 27
000
ASUS42 KKEY 010610
RWRKEY

FLORIDA REGIONAL WEATHER ROUNDUP FOR THE FLORIDA KEYS
NATIONAL WEATHER SERVICE KEY WEST FLORIDA
200 AM EDT SUN MAY 01 2016

...SOUTH FLORIDA AND THE KEYS...

CITY           SKY/WX    TMP DP  RH WIND       PRES   REMARKS
FORT MYERS     CLEAR     70  64  81 E6        29.99S
SW REGIONAL AP CLEAR     69  63  81 E6        29.99F
NAPLES         CLEAR     72  66  81 E8        29.98F
MIAMI          MOCLDY    78  68  71 E15       29.99R
WEST KENDALL   PTCLDY    76  68  76 E12       29.99R
HOMESTEAD      PTCLDY    78  70  77 E10       29.98S
MARATHON       PTCLDY    79  69  71 E12       29.95F
BOCA CHICA NAS PTCLDY    78  68  71 E14       29.94F
KEY WEST INTL  PTCLDY    78  70  76 E17       29.95F

...INTERNATIONAL WEATHER...

CITY           SKY/WX    TMP DP  RH WIND       PRES   REMARKS
NASSAU BAHAMAS PTCLDY    77  73  88 NE8       29.99F
CANCUN MEXICO  PTCLDY    81  77  89 E12       29.85F
COZUMEL MEXICO PTCLDY    77  75  94 E10       29.94R

ADJACENT COASTAL WATERS...

STATION/POSITION TIME  SKY/WX   TEMP    WIND        PRES    WAVE
                                AIR SEA DIR/SP/G            HT/PER
                 (UTC)          (F)     (DEG/KT/KT) (MB)    (FT/S)
PULASKI SHOAL LI 0600            78     120/ 14/ 16 1014.1F
SAND KEY         0550            78     130/ 19/ 23 1014.2F
SOMBRERO KEY     NOT AVBL
LONG KEY         0600            79 81  100/ 14/ 14 1014.9F
MOLASSES REEF    NOT AVBL
FOWEY ROCKS      NOT AVBL

$$




USA.gov is the U.S. government's official web portal to all federal, state and local government web resources and services.